Location: Unspecified
(42.3650°N, 71.1030°W)
Time: 15:17:19
(UTC+00:00)

Cosmos 1862 - Pass Details

Date: 02 March 2024
Orbit: 514 x 527 km, 82.5° (Epoch: 19 April)

Event Time Altitude Azimuth Distance (km) Brightness Sun altitude
Rises 22:53:45 0° 197° (SSW) 2,625 7.1 -4.1°
Reaches altitude 10° 22:55:55 10° 201° (SSW) 1,740 6.3 -4.4°
Maximum altitude 22:59:39 55° 280° (W) 627 4.1 -5.1°
Drops below altitude 10° 23:03:25 10° 359° (N) 1,749 5.9 -5.8°
Sets 23:05:36 0° 4° (N) 2,640 6.7 -6.2°
